This is the latest recevied weather packets stored in our database for station/object 4S6DRJ-13. If no packets are shown the sender has not sent any weather packets the latest 10 day(s).
| Time | Temp. | Humidity | Pressure | Rain* | Wind** | Luminosity | Snow |
|---|---|---|---|---|---|---|---|
| 1787667665 | 27.78° C | 86% | 1010.7 hPa | 0 mm | 2.24 m/s, 262° | 0 W/m² | - |
| 1787667603 | 27.78° C | 86% | 1010.7 hPa | 0 mm | 0.45 m/s, 217° | 0 W/m² | - |
| 1787667543 | 27.78° C | 86% | 1010.7 hPa | 0 mm | 0.45 m/s, 174° | 0 W/m² | - |
| 1787667482 | 27.78° C | 86% | 1010.6 hPa | 0 mm | 0.89 m/s, 223° | 0 W/m² | - |
| 1787667420 | 27.78° C | 86% | 1010.6 hPa | 0 mm | 0 m/s | 0 W/m² | - |
| 1787667360 | 27.78° C | 86% | 1010.6 hPa | 0 mm | 0.45 m/s, 213° | 0 W/m² | - |
| 1787667298 | 27.78° C | 86% | 1010.6 hPa | 0 mm | 0.89 m/s, 310° | 0 W/m² | - |
| 1787667237 | 27.78° C | 86% | 1010.7 hPa | 0 mm | 0.45 m/s, 204° | 0 W/m² | - |
| 1787667177 | 27.78° C | 86% | 1010.8 hPa | 0 mm | 0.45 m/s, 236° | 0 W/m² | - |
| 1787667115 | 27.78° C | 86% | 1010.8 hPa | 0 mm | 1.34 m/s, 232° | 0 W/m² | - |
| 1787667054 | 27.78° C | 86% | 1010.5 hPa | 0 mm | 1.34 m/s, 213° | 0 W/m² | - |
| 1787666994 | 27.78° C | 86% | 1010.6 hPa | 0 mm | 0.89 m/s, 199° | 0 W/m² | - |
| 1787666932 | 27.78° C | 86% | 1010.6 hPa | 0 mm | 1.34 m/s, 274° | 0 W/m² | - |
| 1787666871 | 27.78° C | 86% | 1010.6 hPa | 0 mm | 1.34 m/s, 215° | 0 W/m² | - |
| 1787666810 | 27.78° C | 86% | 1010.5 hPa | 0 mm | 0.89 m/s, 180° | 0 W/m² | - |
| 1787666750 | 27.78° C | 86% | 1010.7 hPa | 0 mm | 0.45 m/s, 221° | 0 W/m² | - |
| 1787666688 | 27.78° C | 86% | 1010.7 hPa | 0 mm | 1.34 m/s, 252° | 0 W/m² | - |
| 1787666628 | 27.78° C | 86% | 1010.4 hPa | 0 mm | 1.34 m/s, 259° | 0 W/m² | - |
| 1787666567 | 27.78° C | 86% | 1010.6 hPa | 0 mm | 0.89 m/s, 229° | 0 W/m² | - |
| 1787666506 | 27.78° C | 86% | 1010.3 hPa | 0 mm | 0 m/s | 0 W/m² | - |
| 1787666444 | 27.78° C | 86% | 1010.6 hPa | 0 mm | 0.45 m/s, 264° | 0 W/m² | - |
| 1787666383 | 27.78° C | 86% | 1010.5 hPa | 0 mm | 0.45 m/s, 236° | 0 W/m² | - |
| 1787666322 | 27.78° C | 86% | 1010.6 hPa | 0 mm | 0 m/s | 0 W/m² | - |
| 1787666261 | 27.78° C | 86% | 1010.6 hPa | 0 mm | 1.34 m/s, 221° | 0 W/m² | - |
| 1787666201 | 27.78° C | 86% | 1010.5 hPa | 0 mm | 0.45 m/s, 90° | 0 W/m² | - |
* Rain latest hour (hover to see other rain measurements)
** Current wind speed in m/s (hover to see current wind gust speed)